Lapse_Rate
6.2 6.1 6.2 6.1 6.2 6.5 6.8 6.8 7.0 7.1 7.1 7.2 7.3 7.4 7.5 7.6 7.5 7.7 7.6 7.6 7.6 7.6 7.5 7.0 7.0 7.1 7.1 7.2 7.2 6.9 7.0 6.8 6.7 6.9 7.0 6.8 6.8 6.9 6.9 6.7 6.7 6.3 6.3 6.1 5.9
6.3 6.2 6.2 6.1 6.1 6.2 6.6 6.7 6.9 7.2 7.1 7.3 7.4 7.5 7.6 7.9 7.9 8.0 8.0 8.0 7.6 7.8 7.4 7.3 7.3 7.3 7.3 7.2 7.2 7.4 7.3 7.1 7.0 7.0 7.0 7.0 7.0 7.4 7.0 7.1 7.1 6.8 6.3 6.1 5.8
6.3 6.3 6.3 6.2 6.2 6.2 6.4 6.7 6.7 7.1 7.3 7.4 7.5 7.7 7.6 8.0 8.0 8.1 8.0 8.2 7.8 7.6 7.4 7.4 7.8 8.0 7.7 7.6 7.5 7.2 7.3 7.4 7.4 7.1 6.9 7.0 7.1 7.4 7.2 7.1 7.0 7.0 6.3 6.3 6.2
6.2 6.4 6.4 6.4 6.3 6.2 6.3 6.5 6.8 6.9 7.3 7.2 7.6 7.7 7.6 8.0 8.0 8.2 8.1 8.2 8.1 7.8 7.9 7.8 7.8 8.0 7.9 7.8 7.8 7.4 7.5 7.5 7.3 7.3 7.4 7.3 7.0 7.0 6.8 6.8 7.0 7.1 6.9 6.9 6.7
6.1 6.1 6.3 6.5 6.4 6.4 6.3 6.4 6.7 6.8 7.1 7.2 7.4 7.8 7.7 8.1 8.1 7.9 8.1 8.3 7.9 7.8 8.0 8.1 8.0 8.0 8.1 8.3 8.3 8.2 7.9 7.7 7.6 7.4 7.1 7.0 6.8 6.7 6.7 6.8 6.9 6.9 6.8 6.7 6.5
6.2 6.2 6.2 6.3 6.5 6.5 6.4 6.4 6.6 6.8 6.9 7.3 7.2 7.6 7.7 8.0 8.2 8.0 8.0 8.2 8.2 7.9 8.2 8.2 8.2 8.3 8.1 8.0 8.1 8.3 8.1 7.9 7.8 7.5 7.6 7.3 7.0 6.7 6.9 6.8 6.6 6.7 6.6 6.4 6.2
6.2 6.3 6.3 6.4 6.4 6.6 6.5 6.5 6.5 6.7 6.8 7.0 7.3 7.3 7.7 7.9 8.3 8.4 8.2 8.1 8.0 7.8 8.3 8.0 8.4 8.5 8.4 8.2 8.2 8.2 8.1 7.9 7.8 7.6 7.7 7.4 7.3 6.9 6.7 6.5 6.6 6.6 6.4 6.4 6.1
6.1 6.2 6.3 6.4 6.5 6.5 6.6 6.7 6.6 6.7 6.7 6.8 7.1 7.2 7.4 8.0 8.1 8.5 8.5 8.6 8.2 7.9 8.1 7.9 8.2 8.3 8.6 8.4 8.2 8.3 8.3 7.9 7.8 7.7 7.7 7.9 7.6 7.2 6.7 6.4 6.5 6.5 6.5 6.7 6.4
5.9 6.1 6.3 6.4 6.5 6.5 6.6 6.6 6.8 6.7 6.6 6.6 6.8 7.2 7.3 7.8 8.1 8.1 8.5 8.6 8.6 8.5 8.2 8.1 8.1 8.3 8.3 8.2 8.1 8.1 8.5 8.3 7.9 7.8 7.7 7.8 8.0 7.8 7.0 6.4 6.2 6.2 6.5 6.5 6.3
5.8 5.7 6.1 6.4 6.5 6.6 6.6 6.7 6.9 6.9 6.7 6.6 6.7 6.8 7.5 7.8 7.7 8.0 7.9 8.1 8.2 8.0 8.3 8.4 8.1 8.3 8.6 8.3 8.0 8.5 8.6 8.7 8.7 8.4 7.8 7.8 8.0 8.0 7.7 7.0 6.6 6.5 6.6 6.5 6.1
5.9 5.7 5.7 6.4 6.6 6.7 6.9 6.7 6.8 6.9 7.1 7.0 7.1 7.2 7.6 8.0 7.2 7.4 7.4 7.5 7.2 7.6 8.1 8.2 8.0 8.3 8.4 8.3 8.5 8.5 8.3 8.4 8.8 8.5 8.1 7.9 7.9 7.9 7.9 7.4 6.8 6.7 6.9 6.8 6.6
6.1 5.9 5.8 6.4 6.7 6.8 6.9 7.0 7.2 7.6 7.7 7.6 7.4 7.5 7.7 7.3 7.1 7.7 7.7 7.4 7.4 7.6 7.8 7.7 7.8 8.4 8.6 8.9 8.7 8.8 8.8 8.9 8.8 8.6 8.2 7.9 7.9 8.0 7.8 7.8 7.8 7.3 7.3 7.2 6.7
6.4 6.2 6.1 6.4 6.9 7.1 7.1 7.2 7.3 7.5 7.9 7.9 7.8 7.9 8.0 7.7 7.3 7.8 7.6 7.8 7.6 7.9 7.5 7.4 8.3 8.4 8.9 9.0 8.9 8.8 8.9 9.2 8.5 8.7 8.1 7.8 7.6 8.0 7.9 7.8 7.2 7.6 7.3 7.2 7.2
6.6 6.3 6.2 6.6 7.0 7.4 7.4 7.1 7.2 7.5 7.8 8.4 8.1 8.2 8.3 8.1 7.3 8.0 7.5 7.7 7.9 7.9 7.9 7.6 8.3 8.2 8.6 8.7 8.8 8.9 9.1 8.9 9.0 8.5 8.6 8.3 7.7 8.2 8.1 8.1 7.8 7.8 7.6 7.5 7.4
6.9 6.6 6.5 6.5 7.1 7.6 7.4 7.4 7.3 7.6 6.9 8.3 8.3 8.3 8.2 8.0 8.5 8.2 8.1 7.8 7.9 8.0 7.9 7.6 8.1 8.3 8.2 8.7 8.8 8.7 9.0 8.9 9.2 9.1 9.0 8.3 7.7 8.5 8.2 7.9 8.4 8.3 7.6 7.5 7.6
7.0 6.9 6.8 6.6 7.0 7.5 7.5 7.4 7.3 7.4 7.7 8.3 8.1 8.1 8.4 8.3 8.3 8.3 8.4 8.1 7.8 7.8 7.9 7.8 8.2 8.4 8.3 8.8 8.6 8.7 9.1 9.2 9.1 8.6 8.0 9.0 8.4 8.8 8.6 9.1 9.0 8.5 7.7 7.6 7.7
7.3 7.1 7.0 6.8 7.1 7.4 7.3 7.4 7.4 7.4 8.0 8.0 8.2 8.2 8.5 8.1 8.4 8.4 8.5 8.3 8.0 7.9 8.0 7.8 8.1 8.2 8.4 8.5 8.8 8.8 9.0 8.5 8.1 7.7 7.2 8.8 8.1 9.0 9.0 8.9 8.9 8.9 8.3 7.7 7.5
7.3 7.2 7.1 7.0 7.0 7.1 7.2 7.3 7.5 7.5 7.3 7.4 7.9 8.1 8.0 7.9 7.9 8.3 8.7 8.6 8.4 8.7 8.2 8.1 8.2 8.4 8.3 8.4 8.7 9.1 8.9 8.6 7.6 6.9 7.9 8.3 8.6 9.1 9.1 9.1 9.2 8.9 8.5 8.1 7.6
7.2 7.0 6.8 6.8 6.9 7.0 7.1 7.2 7.5 7.3 7.1 7.2 7.8 8.1 7.9 7.8 7.7 7.9 8.1 8.7 7.9 8.3 7.8 8.1 7.8 8.3 8.5 8.4 8.6 8.8 8.8 8.8 8.6 7.9 7.6 8.8 9.1 9.2 9.2 9.4 9.4 9.1 8.8 8.5 8.0
6.6 6.8 6.7 6.6 6.8 6.8 6.9 7.0 7.2 6.9 6.6 7.0 7.2 7.5 7.3 7.5 7.6 7.7 7.8 7.7 7.6 7.7 7.7 7.7 7.5 8.1 8.4 8.5 8.5 8.8 8.8 8.9 8.8 7.2 7.1 8.3 8.9 8.8 8.8 9.3 9.6 9.4 9.0 8.7 8.4
6.5 6.4 6.6 6.7 6.6 6.7 6.6 6.3 6.3 6.1 6.3 6.9 6.9 7.0 7.3 7.5 7.6 7.7 7.7 7.7 7.8 7.8 7.7 7.8 7.3 8.3 8.5 8.5 8.7 9.1 8.9 9.1 8.9 8.8 7.0 6.2 8.1 9.2 9.1 8.9 9.1 9.3 9.3 9.0 8.6
6.4 6.3 6.5 6.6 6.3 6.3 6.4 6.3 6.3 6.3 6.5 6.6 6.6 6.7 7.0 7.2 7.2 7.4 7.7 7.4 7.6 7.6 7.8 7.6 7.7 7.1 7.8 9.0 9.0 9.4 9.3 9.3 9.1 8.8 8.4 8.3 8.2 9.2 9.2 9.2 9.1 9.1 9.2 9.3 8.9
6.1 5.8 5.6 6.1 6.2 6.2 6.2 6.0 6.2 6.3 6.5 6.7 6.6 6.4 6.4 6.5 6.9 7.0 7.0 6.9 7.0 7.3 7.6 7.6 7.8 7.6 7.9 8.4 8.7 8.5 8.5 8.3 8.4 8.9 8.3 8.0 7.9 9.1 9.1 9.1 9.3 9.2 9.4 9.4 9.1
6.1 5.8 5.7 5.5 5.6 5.8 6.1 6.2 6.5 6.5 6.5 6.4 6.3 6.2 6.5 6.5 6.6 6.7 6.7 6.6 6.8 7.0 7.1 7.3 7.6 7.7 7.5 7.4 7.0 7.4 7.8 8.3 8.5 8.3 8.3 8.0 8.3 8.9 9.0 9.2 9.2 9.2 9.4 9.4 9.6
5.9 6.0 5.9 5.8 5.6 5.6 5.8 5.8 6.0 6.3 6.4 6.4 6.3 6.2 6.3 6.4 6.4 6.2 6.3 6.2 6.3 6.3 6.8 7.0 7.1 7.3 7.3 7.7 7.5 7.3 7.6 8.0 8.2 8.3 8.1 8.5 8.5 8.8 8.9 9.3 9.3 9.4 9.2 9.4 9.5
5.6 5.5 5.5 5.9 6.0 5.9 5.9 5.8 6.1 6.3 5.8 6.1 6.0 6.0 6.0 5.9 5.7 5.8 6.1 6.2 5.6 6.2 6.6 6.5 6.3 6.4 6.4 7.2 7.6 7.5 7.8 7.9 8.1 8.2 8.4 8.5 8.6 9.0 8.7 8.9 9.1 9.3 9.6 9.4 9.6
5.4 5.5 5.7 5.8 5.6 5.7 5.9 6.0 6.2 5.9 6.1 5.9 5.9 5.9 5.6 5.3 5.5 5.7 5.6 5.9 6.0 5.7 5.6 5.7 5.9 6.0 6.2 6.8 7.0 7.6 7.8 8.3 8.2 8.0 8.3 8.4 8.7 9.1 9.1 9.0 8.8 8.9 8.9 9.3 9.4
Wind_Speed
20 19 19 18 18 17 15 13 13 12 12 14 14 15 11 11 12 2 5 9 7 17 12 11 7 6 4 5 5 2 3 1 3 5 4 14 7 5 4 12 2 5 6 11 14
20 20 20 20 20 20 18 14 13 14 12 13 14 14 12 9 2 6 8 13 10 20 7 10 2 4 4 3 3 3 2 4 4 4 6 16 15 13 6 10 2 10 12 16 17
20 20 20 21 21 21 21 19 15 14 13 13 13 11 11 7 3 5 15 17 20 19 4 2 5 3 3 1 4 5 4 4 4 5 7 6 12 5 15 5 7 17 17 17 15
22 21 20 21 21 22 22 21 18 15 15 12 12 10 9 1 0 3 18 17 21 12 4 4 3 3 2 2 2 1 9 9 3 5 7 10 12 7 10 6 13 19 21 18 17
23 23 22 20 22 21 22 22 21 16 14 13 10 9 0 2 7 13 20 15 13 6 6 4 4 3 2 3 3 3 5 8 7 7 7 13 9 8 4 11 14 17 18 18 17
24 23 24 23 21 23 23 24 22 18 13 12 9 7 2 3 0 18 17 13 9 11 11 9 5 5 2 4 5 4 6 5 4 5 7 10 6 6 6 12 14 17 17 16 17
27 26 25 25 24 23 24 25 23 18 13 9 6 3 1 10 1 11 14 9 7 14 16 2 2 3 3 4 1 3 2 4 3 3 4 12 1 5 12 14 16 16 15 14 17
27 28 28 26 26 26 25 26 24 19 10 7 4 2 7 5 10 7 4 1 3 6 3 5 4 4 3 6 6 5 4 2 4 6 5 3 6 5 12 14 14 15 15 15 17
27 28 29 29 28 27 28 27 20 7 3 9 3 1 8 2 3 5 4 4 3 7 3 9 5 3 3 3 5 3 3 5 4 9 6 4 3 9 13 13 13 12 12 9 10
28 28 29 30 30 28 29 22 3 6 2 4 3 1 2 6 3 5 4 2 4 4 8 2 3 2 2 4 7 7 5 4 7 6 4 6 6 13 16 14 15 13 10 8 9
29 30 31 31 30 27 12 3 4 4 2 8 6 4 4 3 5 7 7 7 2 1 5 3 3 8 7 11 13 10 7 7 5 6 6 6 6 17 17 14 13 11 11 9 12
30 30 31 32 30 26 1 5 4 2 8 11 12 9 7 3 5 5 11 7 7 8 5 3 7 14 11 10 11 13 12 15 3 7 6 6 7 10 17 20 17 15 13 15 12
31 30 31 35 33 3 2 4 2 0 2 8 7 6 6 9 9 10 13 8 7 7 8 10 16 7 5 3 2 5 4 11 2 3 3 6 4 7 12 13 14 14 14 14 17
30 29 28 36 2 5 5 3 6 3 4 7 4 7 5 9 6 9 8 7 3 13 7 7 6 5 9 4 6 3 7 13 7 6 5 7 5 8 15 18 16 15 14 16 17
30 27 23 12 3 2 5 10 8 4 3 4 2 1 2 8 2 8 7 3 7 5 5 11 4 12 9 5 5 11 6 9 9 2 6 2 2 7 14 15 20 20 16 17 19
32 25 17 2 1 6 14 8 4 5 3 8 5 6 3 4 5 5 4 4 2 4 3 7 2 5 8 4 7 8 5 7 5 4 1 7 9 6 8 26 21 17 20 20 17
34 25 6 3 3 8 5 4 5 4 5 8 6 8 2 3 5 3 3 2 6 1 6 6 6 5 4 7 1 6 6 4 4 2 7 4 4 9 9 14 22 24 23 22 19
37 21 11 5 5 7 4 5 2 2 3 4 5 7 6 9 6 8 2 1 6 4 2 5 12 5 4 8 10 4 8 5 4 3 7 5 5 7 9 15 23 23 22 21 19
28 2 1 3 7 2 5 4 5 4 3 6 9 6 6 7 3 7 7 3 3 4 0 3 9 4 4 7 7 5 4 7 6 2 2 3 8 12 4 6 12 16 16 17 20
3 4 4 3 8 5 5 4 3 4 5 1 2 1 4 6 6 6 4 2 4 3 3 2 6 5 7 2 4 7 6 1 3 2 5 5 4 7 10 9 6 11 17 18 18
3 4 4 5 3 6 4 4 4 6 4 2 2 3 2 1 2 2 4 4 7 6 4 0 3 8 3 2 7 1 3 2 5 5 5 4 7 8 10 8 10 14 16 18 17
2 3 4 3 4 2 1 4 5 6 5 4 2 2 1 1 1 3 2 6 12 7 2 3 4 4 8 12 5 3 4 6 5 7 4 3 8 5 9 7 12 17 17 18 17
3 2 4 4 3 3 7 5 3 7 7 7 6 7 4 4 4 1 5 6 12 11 6 4 1 3 11 7 7 6 4 1 3 2 5 6 6 3 5 7 11 15 17 17 16
3 4 5 5 2 2 5 5 6 8 3 5 2 4 5 6 5 3 4 7 9 5 10 2 2 6 6 7 5 7 6 5 4 2 3 6 8 18 13 10 8 8 10 15 17
4 1 2 4 4 5 2 5 5 8 6 9 5 5 2 3 6 5 0 4 7 1 7 4 2 4 5 9 6 8 11 6 4 7 5 8 7 13 11 12 13 10 6 6 11
3 3 4 2 4 5 5 4 4 3 3 5 4 12 5 2 3 5 6 0 6 6 9 5 3 1 4 6 8 8 11 9 9 6 7 8 10 8 8 8 8 10 11 10 12
3 3 2 3 4 3 2 2 6 6 6 2 8 7 4 2 10 12 12 10 9 6 5 3 3 3 5 4 8 11 7 5 2 4 4 5 8 6 14 8 8 10 9 16 12
Wind_Direction
358 357 353 349 343 338 341 340 333 328 320 311 308 304 317 319 314 163 220 224 176 158 136 170 165 168 114 25 59 108 56 304 242 130 156 156 138 147 84 143 186 211 142 138 138
358 354 351 347 343 337 334 336 332 323 318 309 306 306 320 334 268 235 251 170 173 161 155 180 255 78 53 92 138 102 62 242 233 143 150 170 147 146 128 153 85 97 110 137 147
354 352 348 345 341 336 330 328 328 323 317 308 304 307 315 324 206 223 184 171 160 165 142 52 124 63 75 82 172 167 220 248 251 150 121 114 141 121 139 191 190 144 150 154 163
348 346 345 340 337 333 327 322 321 323 314 309 304 307 316 284 91 142 151 159 152 168 106 143 85 75 104 229 188 208 238 255 214 163 125 141 140 138 174 200 162 157 159 161 173
345 341 339 338 333 328 323 317 317 319 312 305 303 311 201 313 249 131 130 148 163 169 163 161 147 128 239 236 146 262 258 247 223 167 146 135 145 153 179 146 141 159 163 173 179
343 339 335 334 331 326 320 315 313 314 308 299 298 303 279 290 180 138 130 153 188 195 208 202 205 193 161 224 183 215 267 25 111 139 138 140 132 107 155 147 149 168 180 181 187
340 337 334 331 329 324 318 313 310 309 300 285 281 270 28 243 41 133 142 174 191 200 230 145 115 0 353 308 274 283 64 357 121 80 93 104 303 178 163 162 169 181 189 194 198
337 334 332 329 326 322 316 312 308 301 285 246 224 234 248 322 126 130 120 23 254 222 324 120 96 156 147 301 7 350 51 136 215 139 181 93 241 169 172 170 184 193 195 199 203
337 333 330 327 325 322 317 313 309 301 135 147 133 154 270 322 158 192 147 189 66 342 24 326 49 25 3 49 349 338 237 210 247 192 143 173 204 195 183 180 195 202 210 211 191
335 332 328 325 323 323 322 310 106 107 173 203 261 19 263 246 198 154 149 155 103 84 342 33 85 72 40 104 239 241 229 236 217 201 170 181 213 179 193 189 201 203 216 204 202
333 330 328 325 322 324 339 98 21 4 292 202 202 243 287 247 148 208 150 123 49 142 201 201 31 255 201 206 233 240 232 225 231 176 144 212 186 184 204 204 210 210 211 211 206
331 330 328 324 322 323 267 85 141 213 294 237 245 242 261 65 341 264 129 156 151 216 131 37 232 244 225 217 232 259 246 245 273 182 162 165 228 195 199 215 210 206 210 211 204
329 330 329 323 319 329 282 211 356 284 217 288 221 225 231 148 218 256 152 182 190 214 217 210 246 295 294 24 322 273 216 270 247 113 60 112 300 186 223 228 230 227 211 208 200
327 329 331 324 11 323 289 294 309 207 43 282 273 271 174 150 244 206 206 151 194 214 215 223 286 279 312 294 201 222 238 246 202 159 200 157 259 237 205 215 223 224 212 209 206
326 328 328 329 285 315 293 332 321 62 1 306 302 250 155 176 124 225 170 110 212 197 131 245 268 285 286 244 226 268 192 228 179 161 116 144 21 254 184 214 220 222 213 211 207
324 324 326 122 240 249 305 317 53 45 268 334 335 336 116 313 313 326 129 98 169 205 220 236 219 193 230 253 206 285 344 36 51 84 354 205 182 261 181 213 216 220 219 215 207
323 317 287 274 228 313 311 39 42 125 326 332 328 355 334 3 349 9 314 210 176 144 279 318 264 259 205 295 199 73 50 333 349 32 229 180 130 249 234 223 207 207 210 216 210
325 319 174 224 274 346 45 50 138 281 335 322 322 331 41 9 6 357 54 262 32 60 29 232 285 210 214 200 237 203 151 159 242 232 263 190 231 265 234 223 208 205 206 205 206
325 350 206 273 198 108 72 69 211 218 254 320 328 45 343 355 7 23 358 93 99 74 177 184 266 291 239 229 149 262 193 195 129 73 347 237 293 311 331 258 200 203 201 201 206
12 358 334 323 156 58 72 207 238 224 321 216 303 124 13 330 29 27 338 67 354 254 188 247 286 241 287 148 236 183 174 275 11 216 247 281 265 238 314 291 232 200 200 203 206
38 49 295 22 48 45 95 247 296 297 15 333 270 297 48 18 276 298 320 329 7 325 338 27 122 291 27 166 230 324 267 85 129 148 189 249 260 213 228 217 204 212 209 202 202
40 61 298 30 44 38 20 329 292 326 341 350 77 40 321 188 275 264 127 20 358 310 27 313 144 300 263 278 257 274 246 162 138 262 219 190 266 185 234 227 197 213 219 203 202
55 277 326 59 73 340 317 314 321 342 347 357 350 22 352 346 8 259 27 16 7 356 2 323 319 1 340 355 3 31 333 209 158 108 224 224 267 156 280 253 248 237 209 207 197
53 15 342 33 51 68 350 325 346 336 49 352 75 62 15 5 14 353 26 3 330 329 327 61 137 156 191 235 266 291 306 305 116 110 271 228 272 298 297 286 277 225 203 203 196
25 44 179 332 348 339 314 357 356 1 350 5 25 53 349 298 334 3 78 326 304 309 3 74 266 197 255 266 249 248 273 257 232 236 218 270 209 274 281 277 278 219 182 225 215
68 27 358 304 303 350 356 17 4 333 287 329 15 326 278 232 120 284 298 97 229 334 356 349 275 31 262 269 276 258 245 243 231 238 252 274 283 245 268 311 307 239 180 192 220
337 346 88 295 340 19 230 20 316 1 278 268 333 316 256 315 297 263 231 239 227 210 214 218 169 339 265 297 320 296 242 175 353 264 215 263 256 298 303 275 280 272 239 197 198